SCP
-0 -0 -0 -0 -0 -0 -0 -0 -0 -0 0 0 0 0 -0 -0 0 -0 0 0 0 0 0 0 0 0 0 0 0 0 0 0 0 0 0 0 0 0 0 0 0 0 0 0 0
-0 -0 -0 -0 -0 -0 -0 -0 -0 -0 0 0 0 0 0 0 0 0 0 0 0 0 0 0 0 0 0 0 0 0 0 0 0 0 0 0 0 0 0 0 0 0 0 0 0
0 0 0 -0 -0 -0 0 0 -0 -0 -0 0 -0 0 0 0 0 0 0 0 0 0 0 0 0 0 0 0 0 0 0 0 0 0 0 0 0 0 0 0 0 0 0 0 0
0 0 0 0 0 0 0 0 0 0 0 -0 -0 0 0 0 0 0 0 0 0 0 0 0 0 0 0 0 0 0 0 0 0 0 0 0 0 0 0 0 0 0 0 0 0
0 0 0 0 0 0 0 0 0 0 0 -0 0 0 0 0 0 0 0 0 0 0 0 0 0 0 0 0 0 0 0 0 0 0 0 0 0 0 0 0 0 0 0 0 0
0 0 0 0 0 0 0 0 0 0 0 -0 0 0 0 0 0 0 0 0 0 0 0 0 0 0 0 0 0 0 0 0 0 0 0 0 0 0 0 0 0 0 0 0 0
0 0 0 0 0 0 0 0 0 0 0 -0 0 0 0 0 0 0 0 0 0 0 0 0 0 0 0 0 0 0 0 0 0 0 0 0 0 0 0 0 0 0 0 0 0
0 0 0 0 0 0 0 0 0 0 0 0 0 0 0 0 0 0 0 0 0 0 0 0 0 0 0 0 0 0 0 0 0 0 0 0 0 0 0 0 0 0 0 0 0
0 0 0 0 0 0 0 0 0 0 0 0 0 0 0 0 0 0 0 0 0 0 0 0 0 0 0 0 0 0 0 0 0 0 0 0 0 0 0 0 0 0 0 0 0
0 0 0 0 0 0 0 0 0 0 0 0 0 0 0 0 0 0 0 0 0 0 0 0 0 0 0 0 0 0 0 0 0 0 0 0 0 0 0 0 0 0 0 0 0
0 0 0 0 0 0 0 0 0 0 0 0 0 0 0 0 0 0 0 0 0 0 0 0 0 0 0 0 0 0 0 0 0 0 0 0 0 0 0 0 0 0 0 0 0
0 0 0 0 0 0 0 0 0 0 0 0 0 0 0 0 0 0 0 0 0 0 0 0 0 0 0 0 0 0 0 0 0 0 0 0 0 0 0 0 0 0 0 0 0
0 0 0 0 0 0 0 0 0 0 0 0 0 0 0 0 0 0 0 0 0 0 0 0 0 0 0 0 0 0 0 0 0 0 0 0 0 0 0 0 0 0 0 0 0
0 0 0 0 0 0 0 0 0 0 0 0 0 0 0 0 0 0 0 0 0 0 0 0 0 0 0 0 0 0 0 0 0 0 0 0 0 0 0 0 0 0 0 0 0
0 0 0 0 0 0 0 0 0 0 0 0 0 0 0 0 0 0 0 0 0 0 0 0 0 0 0 0 0 0 0 0 0 0 0 0 0 0 0 0 0 0 0 0 0
0 0 0 0 0 0 0 0 0 0 0 0 0 0 0 0 0 0 0 0 0 0 0 0 0 0 0 0 0 0 0 0 0 0 0 0 0 0 0 0 0 0 0 0 0
0 0 0 0 0 0 0 0 0 0 0 0 0 0 0 0 0 0 0 0 0 0 0 0 0 0 0 0 0 0 0 0 0 0 0 0 0 0 0 0 0 0 0 0 0
0 0 0 0 0 0 0 0 0 0 0 0 0 0 0 0 0 0 0 0 0 0 0 0 0 0 0 0 0 0 0 0 0 0 0 0 0 0 0 0 0 0 0 0 0
0 0 0 0 0 0 0 0 0 0 0 0 0 0 0 0 0 0 0 0 0 0 0 0 0 0 0 0 0 0 0 0 0 0 0 0 0 0 0 0 0 0 0 0 0
0 0 0 0 0 0 0 0 0 0 0 0 0 0 0 0 0 0 0 0 0 0 0 0 0 0 0 0 0 0 0 0 0 0 0 0 0 0 0 0 0 0 0 0 0
0 0 0 0 0 0 0 0 0 0 0 0 0 0 0 0 0 0 0 0 0 0 0 0 0 0 0 0 0 0 0 0 0 0 0 0 0 0 0 0 0 0 0 0 0
0 0 0 0 0 0 0 0 0 0 0 0 0 0 0 0 0 0 0 0 0 0 0 0 0 0 0 0 0 0 0 0 0 0 0 0 0 0 0 0 0 0 0 0 0
0 0 0 0 0 0 0 0 0 0 0 0 0 0 0 0 0 0 0 0 0 0 0 0 0 0 0 0 0 0 0 0 0 0 0 0 0 0 0 0 0 0 0 0 0
0 0 0 0 0 0 0 0 0 0 0 0 0 0 0 0 0 0 0 0 0 0 0 0 0 0 0 0 0 0 0 0 0 0 0 0 0 0 0 0 0 0 0 0 0
0 0 0 0 0 0 0 0 0 0 0 0 0 0 0 0 0 0 0 0 0 0 0 0 0 0 0 0 0 0 0 0 0 0 0 0 0 0 0 0 0 0 0 0 0
0 0 0 0 0 0 0 0 0 0 0 0 0 0 0 0 0 0 0 0 0 0 0 0 0 0 0 0 0 0 0 0 0 0 0 0 0 0 0 0 0 0 0 0 0
0 0 0 0 0 0 0 0 0 0 0 0 0 0 0 0 0 0 0 0 0 0 0 0 0 0 0 0 0 0 0 0 0 0 0 0 0 0 0 0 0 0 0 0 0
Wind_Speed_500mb
21 24 27 30 32 32 34 36 38 40 39 38 32 12 15 15 16 11 18 19 22 22 22 19 16 10 4 6 5 2 8 1 5 11 5 5 5 4 5 21 12 17 24 20 47
17 19 22 25 28 30 32 34 34 35 36 33 29 12 3 6 9 13 15 17 20 22 22 23 23 15 5 6 5 8 6 8 3 7 8 9 10 17 10 13 8 20 29 42 40
17 18 19 21 24 26 29 31 35 34 33 32 25 16 1 3 3 1 9 14 19 19 22 22 24 12 5 5 7 2 5 7 5 6 8 6 7 14 17 11 32 47 53 48 41
19 21 22 22 22 24 25 27 30 34 33 30 24 13 1 4 5 10 3 8 14 17 23 20 19 9 7 6 7 4 3 3 10 8 6 7 8 12 38 19 19 42 49 51 45
23 25 26 25 25 25 24 25 26 30 32 30 25 10 4 8 11 15 9 4 7 12 22 19 23 11 4 5 10 2 5 4 7 12 13 14 18 15 37 40 29 50 51 48 42
27 29 31 32 31 29 28 27 25 28 29 27 25 14 10 9 12 17 15 9 6 9 16 14 13 10 4 1 2 7 10 17 14 14 12 11 6 8 14 24 43 55 53 48 42
30 31 33 35 36 36 33 31 29 29 28 27 24 16 17 19 16 18 18 12 7 6 11 8 13 3 3 4 9 9 12 14 9 8 7 9 11 22 21 43 54 57 53 48 42
33 34 35 36 38 39 37 34 32 33 30 28 18 16 12 16 17 18 18 15 11 7 5 5 8 4 1 2 9 9 7 9 5 6 3 10 16 10 36 57 63 63 60 57 50
35 35 35 36 38 40 38 34 32 32 30 16 15 13 9 13 19 21 20 14 12 10 6 4 1 4 1 7 9 12 7 7 18 14 3 10 18 8 32 62 53 68 66 59 54
37 37 35 36 37 38 37 35 31 25 16 14 15 9 15 10 15 20 23 18 13 10 4 2 4 6 6 8 6 9 10 11 13 6 5 10 33 13 34 57 58 70 71 67 64
39 37 35 35 35 35 36 29 10 9 14 16 12 16 5 16 14 16 19 20 17 9 7 2 6 10 16 15 9 6 9 16 9 9 9 16 26 44 33 50 48 60 74 79 74
43 37 35 31 30 28 25 13 8 10 22 33 42 39 42 27 14 20 22 17 14 12 9 6 13 10 4 9 8 8 9 16 19 4 13 21 25 27 24 30 67 71 77 86 77
47 40 34 28 27 23 15 11 12 16 9 17 21 15 12 24 16 21 28 17 10 12 12 13 5 12 8 7 8 9 11 11 16 13 10 15 11 19 8 28 38 62 80 91 96
48 46 36 26 21 16 11 9 12 15 7 13 8 7 12 12 6 19 25 13 6 19 14 11 2 11 9 12 14 9 10 6 8 6 9 8 17 10 14 26 14 44 70 88 90
47 44 36 28 12 10 10 11 11 6 7 7 3 8 11 9 7 11 18 13 10 13 12 13 15 11 12 15 16 15 5 5 6 8 7 8 8 12 3 18 39 24 66 75 93
47 42 37 29 26 22 16 11 4 9 15 7 10 11 7 7 4 10 8 7 6 7 4 11 1 11 13 4 7 8 5 4 8 4 3 12 17 8 11 17 13 13 59 73 90
46 41 39 31 20 18 16 6 4 9 7 10 10 9 7 13 7 12 11 10 14 7 11 1 9 2 7 6 3 7 10 8 9 4 15 7 7 26 20 27 19 18 45 73 89
40 36 42 32 28 19 18 6 14 15 17 4 7 6 15 16 10 13 10 10 13 4 6 10 20 17 12 12 13 11 15 11 14 8 16 1 17 13 16 20 33 37 51 65 85
31 36 41 39 33 29 18 11 19 16 13 15 6 7 10 10 10 11 17 13 19 26 20 12 14 4 1 2 4 9 9 0 4 5 6 10 15 15 10 18 8 22 50 67 86
35 31 45 39 39 33 7 37 17 19 11 7 24 21 17 13 13 14 15 9 11 27 3 10 12 2 5 4 8 7 10 8 5 6 14 13 20 29 21 22 12 16 40 59 79
30 16 17 37 42 31 19 18 16 33 15 17 16 11 16 16 16 13 14 8 11 8 6 9 7 5 8 16 21 4 6 3 6 9 11 7 22 14 16 19 23 30 51 63 82
45 7 24 55 29 17 28 15 22 17 68 25 11 20 20 20 16 15 23 22 39 27 21 14 9 11 27 2 4 5 19 26 13 13 7 6 46 18 17 20 25 37 56 67 81
32 35 18 76 17 27 8 11 35 19 27 27 24 21 16 19 15 22 33 18 43 24 24 18 9 4 11 4 6 11 13 12 2 3 36 17 41 11 9 3 31 35 52 66 77
29 8 29 65 55 24 26 24 25 39 41 23 13 17 10 23 27 17 11 11 25 21 16 41 15 17 36 19 12 12 21 24 33 17 48 54 68 76 49 37 18 39 53 65 77
51 25 37 16 41 46 18 14 45 29 30 55 29 49 36 27 35 44 34 1 6 13 10 18 33 16 45 38 11 13 31 29 36 55 36 81 61 66 59 55 34 59 62 64 76
45 28 24 31 27 52 50 70 60 37 26 28 46 24 48 57 49 37 42 16 28 4 17 8 17 12 34 14 14 29 58 37 51 60 53 62 80 79 76 79 66 47 53 59 68
77 71 43 30 34 31 57 73 66 41 46 59 41 38 46 62 73 74 33 33 27 25 23 18 13 10 45 8 10 31 31 55 60 63 40 55 79 75 52 33 22 36 57 67 76
Wind_Direction_500mb
5 6 9 11 14 14 12 12 16 17 22 25 30 59 64 67 65 64 61 59 52 42 36 25 14 359 4 40 45 45 61 145 169 150 192 153 132 159 148 144 164 194 177 204 176
352 355 357 1 5 5 4 3 5 8 10 18 23 37 71 60 67 71 67 55 46 37 28 14 5 0 28 20 20 74 96 218 223 173 176 167 185 184 166 136 91 134 164 165 171
332 337 342 347 351 356 357 357 354 356 359 2 14 19 45 232 305 144 71 51 40 30 22 3 3 15 30 357 9 120 151 186 235 174 180 183 189 194 156 229 201 183 173 173 178
316 321 325 329 334 340 345 347 347 344 348 347 355 4 312 247 235 197 127 38 26 27 16 17 14 16 54 7 358 353 360 223 187 204 180 205 188 205 208 228 248 210 189 182 186
311 314 315 317 319 323 329 334 337 333 336 337 335 330 257 255 253 208 216 258 357 14 19 22 16 7 66 318 335 55 312 295 219 214 222 226 229 219 219 240 225 189 186 188 189
307 310 312 313 315 316 319 322 324 321 323 323 322 303 253 243 245 220 225 243 290 353 18 29 11 2 87 9 39 312 288 279 261 239 230 210 249 199 225 195 180 184 188 191 197
301 305 309 310 312 314 317 318 316 311 311 309 306 283 262 264 238 225 226 221 239 317 3 19 8 17 348 5 344 325 334 327 238 208 231 191 284 233 221 184 182 187 194 195 197
297 302 306 308 310 312 315 316 314 308 301 300 285 267 250 243 230 229 221 221 230 274 319 335 0 92 78 16 14 21 43 348 303 157 292 153 262 265 225 194 196 196 199 198 198
294 297 302 306 309 311 315 315 311 302 296 279 264 235 246 236 229 218 217 225 239 253 266 263 324 80 81 74 18 15 285 260 313 205 122 186 272 280 209 203 197 205 204 197 195
285 292 299 303 306 310 316 321 309 291 271 258 244 239 233 220 211 215 219 232 246 234 244 195 94 58 27 79 261 263 290 263 240 313 191 259 269 233 210 209 210 209 207 201 202
277 285 293 300 305 311 320 339 315 280 249 233 229 245 228 219 223 224 228 236 229 201 194 73 75 237 230 193 156 181 224 246 248 251 219 237 248 270 227 219 219 216 208 206 207
270 275 283 292 298 307 320 334 328 304 299 269 259 251 246 242 248 227 210 195 181 194 131 34 229 215 135 159 162 194 256 266 285 260 192 264 249 272 247 227 217 213 209 208 208
270 270 275 285 291 295 296 302 311 322 278 275 247 243 225 216 221 201 192 192 177 169 188 179 218 128 156 197 192 213 197 242 240 338 280 315 263 237 301 249 241 226 222 217 209
272 274 275 280 294 280 265 287 311 330 40 271 232 223 191 173 245 188 190 189 188 199 167 232 218 170 202 239 155 265 213 253 289 346 247 43 290 261 255 270 226 222 211 214 206
267 270 271 274 257 275 274 292 308 324 313 261 199 176 179 188 150 193 188 196 183 181 132 244 165 184 211 219 161 225 129 184 206 237 331 219 247 261 52 268 261 212 215 211 210
258 261 261 259 258 258 260 266 276 54 248 255 156 175 156 214 210 152 175 181 109 122 329 248 200 178 216 111 168 117 33 69 57 88 286 227 192 233 191 219 257 209 216 209 213
252 250 252 243 236 236 232 213 33 177 279 224 214 169 198 196 220 181 169 178 179 149 225 247 218 225 179 149 92 102 72 320 320 337 238 134 242 251 253 246 237 223 207 216 208
261 244 246 235 228 217 193 70 214 220 225 65 129 118 189 162 230 188 167 223 235 109 119 215 275 175 183 204 179 168 164 167 250 238 288 223 246 248 232 278 280 267 235 214 203
256 242 241 231 213 207 187 211 198 188 209 170 93 186 228 229 196 158 205 205 205 172 188 177 266 124 173 95 123 165 179 260 19 110 337 235 285 287 271 281 282 220 203 203 204
251 245 241 235 206 202 190 233 211 196 159 150 209 185 203 209 177 191 181 197 234 196 135 212 288 151 121 112 32 144 158 88 14 274 263 261 274 246 246 261 177 216 210 207 207
237 250 237 224 192 189 219 219 217 229 195 183 212 242 212 191 200 207 216 241 209 145 115 137 167 199 123 208 171 116 219 226 157 175 207 305 268 214 204 218 197 215 214 209 206
215 233 208 184 189 210 227 190 201 211 228 245 214 215 203 193 211 225 214 218 183 155 167 200 164 211 215 357 357 248 198 185 207 234 242 145 261 171 195 229 185 214 215 219 214
198 210 210 182 218 220 255 262 223 187 196 210 224 199 191 206 236 199 230 201 181 159 173 177 215 284 316 36 354 220 206 218 357 116 235 216 261 70 13 205 208 218 217 222 218
193 205 196 203 225 229 224 235 228 224 235 220 226 183 170 225 222 255 227 215 206 209 213 165 196 184 236 223 128 185 215 207 213 238 256 241 262 268 266 259 231 229 234 227 222
193 215 188 195 224 223 201 237 232 226 211 210 243 224 215 236 228 236 245 318 215 218 186 178 240 198 249 255 180 229 234 193 208 230 233 265 261 268 270 270 257 255 233 215 208
205 214 199 227 198 214 222 237 237 232 191 216 229 210 224 231 220 238 226 202 225 70 170 181 248 173 257 224 206 263 257 241 233 248 247 255 266 267 268 282 276 255 216 202 202
224 227 236 223 219 202 219 232 236 232 247 236 226 228 235 231 233 243 242 240 217 192 184 164 171 151 251 208 79 270 255 239 248 246 235 247 250 263 272 258 239 231 213 205 202
Wind_Speed_850mb
21 24 27 30 32 32 34 36 38 40 39 38 32 12 15 15 16 11 18 19 22 22 22 19 16 10 4 6 5 2 8 1 5 11 5 5 5 4 5 21 12 17 24 20 47
17 19 22 25 28 30 32 34 34 35 36 33 29 12 3 6 9 13 15 17 20 22 22 23 23 15 5 6 5 8 6 8 3 7 8 9 10 17 10 13 8 20 29 42 40
17 18 19 21 24 26 29 31 35 34 33 32 25 16 1 3 3 1 9 14 19 19 22 22 24 12 5 5 7 2 5 7 5 6 8 6 7 14 17 11 32 47 53 48 41
19 21 22 22 22 24 25 27 30 34 33 30 24 13 1 4 5 10 3 8 14 17 23 20 19 9 7 6 7 4 3 3 10 8 6 7 8 12 38 19 19 42 49 51 45
23 25 26 25 25 25 24 25 26 30 32 30 25 10 4 8 11 15 9 4 7 12 22 19 23 11 4 5 10 2 5 4 7 12 13 14 18 15 37 40 29 50 51 48 42
27 29 31 32 31 29 28 27 25 28 29 27 25 14 10 9 12 17 15 9 6 9 16 14 13 10 4 1 2 7 10 17 14 14 12 11 6 8 14 24 43 55 53 48 42
30 31 33 35 36 36 33 31 29 29 28 27 24 16 17 19 16 18 18 12 7 6 11 8 13 3 3 4 9 9 12 14 9 8 7 9 11 22 21 43 54 57 53 48 42
33 34 35 36 38 39 37 34 32 33 30 28 18 16 12 16 17 18 18 15 11 7 5 5 8 4 1 2 9 9 7 9 5 6 3 10 16 10 36 57 63 63 60 57 50
35 35 35 36 38 40 38 34 32 32 30 16 15 13 9 13 19 21 20 14 12 10 6 4 1 4 1 7 9 12 7 7 18 14 3 10 18 8 32 62 53 68 66 59 54
37 37 35 36 37 38 37 35 31 25 16 14 15 9 15 10 15 20 23 18 13 10 4 2 4 6 6 8 6 9 10 11 13 6 5 10 33 13 34 57 58 70 71 67 64
39 37 35 35 35 35 36 29 10 9 14 16 12 16 5 16 14 16 19 20 17 9 7 2 6 10 16 15 9 6 9 16 9 9 9 16 26 44 33 50 48 60 74 79 74
43 37 35 31 30 28 25 13 8 10 22 33 42 39 42 27 14 20 22 17 14 12 9 6 13 10 4 9 8 8 9 16 19 4 13 21 25 27 24 30 67 71 77 86 77
47 40 34 28 27 23 15 11 12 16 9 17 21 15 12 24 16 21 28 17 10 12 12 13 5 12 8 7 8 9 11 11 16 13 10 15 11 19 8 28 38 62 80 91 96
48 46 36 26 21 16 11 9 12 15 7 13 8 7 12 12 6 19 25 13 6 19 14 11 2 11 9 12 14 9 10 6 8 6 9 8 17 10 14 26 14 44 70 88 90
47 44 36 28 12 10 10 11 11 6 7 7 3 8 11 9 7 11 18 13 10 13 12 13 15 11 12 15 16 15 5 5 6 8 7 8 8 12 3 18 39 24 66 75 93
47 42 37 29 26 22 16 11 4 9 15 7 10 11 7 7 4 10 8 7 6 7 4 11 1 11 13 4 7 8 5 4 8 4 3 12 17 8 11 17 13 13 59 73 90
46 41 39 31 20 18 16 6 4 9 7 10 10 9 7 13 7 12 11 10 14 7 11 1 9 2 7 6 3 7 10 8 9 4 15 7 7 26 20 27 19 18 45 73 89
40 36 42 32 28 19 18 6 14 15 17 4 7 6 15 16 10 13 10 10 13 4 6 10 20 17 12 12 13 11 15 11 14 8 16 1 17 13 16 20 33 37 51 65 85
31 36 41 39 33 29 18 11 19 16 13 15 6 7 10 10 10 11 17 13 19 26 20 12 14 4 1 2 4 9 9 0 4 5 6 10 15 15 10 18 8 22 50 67 86
35 31 45 39 39 33 7 37 17 19 11 7 24 21 17 13 13 14 15 9 11 27 3 10 12 2 5 4 8 7 10 8 5 6 14 13 20 29 21 22 12 16 40 59 79
30 16 17 37 42 31 19 18 16 33 15 17 16 11 16 16 16 13 14 8 11 8 6 9 7 5 8 16 21 4 6 3 6 9 11 7 22 14 16 19 23 30 51 63 82
45 7 24 55 29 17 28 15 22 17 68 25 11 20 20 20 16 15 23 22 39 27 21 14 9 11 27 2 4 5 19 26 13 13 7 6 46 18 17 20 25 37 56 67 81
32 35 18 76 17 27 8 11 35 19 27 27 24 21 16 19 15 22 33 18 43 24 24 18 9 4 11 4 6 11 13 12 2 3 36 17 41 11 9 3 31 35 52 66 77
29 8 29 65 55 24 26 24 25 39 41 23 13 17 10 23 27 17 11 11 25 21 16 41 15 17 36 19 12 12 21 24 33 17 48 54 68 76 49 37 18 39 53 65 77
51 25 37 16 41 46 18 14 45 29 30 55 29 49 36 27 35 44 34 1 6 13 10 18 33 16 45 38 11 13 31 29 36 55 36 81 61 66 59 55 34 59 62 64 76
45 28 24 31 27 52 50 70 60 37 26 28 46 24 48 57 49 37 42 16 28 4 17 8 17 12 34 14 14 29 58 37 51 60 53 62 80 79 76 79 66 47 53 59 68
77 71 43 30 34 31 57 73 66 41 46 59 41 38 46 62 73 74 33 33 27 25 23 18 13 10 45 8 10 31 31 55 60 63 40 55 79 75 52 33 22 36 57 67 76
Wind_Direction_850mb
5 6 9 11 14 14 12 12 16 17 22 25 30 59 64 67 65 64 61 59 52 42 36 25 14 359 4 40 45 45 61 145 169 150 192 153 132 159 148 144 164 194 177 204 176
352 355 357 1 5 5 4 3 5 8 10 18 23 37 71 60 67 71 67 55 46 37 28 14 5 0 28 20 20 74 96 218 223 173 176 167 185 184 166 136 91 134 164 165 171
332 337 342 347 351 356 357 357 354 356 359 2 14 19 45 232 305 144 71 51 40 30 22 3 3 15 30 357 9 120 151 186 235 174 180 183 189 194 156 229 201 183 173 173 178
316 321 325 329 334 340 345 347 347 344 348 347 355 4 312 247 235 197 127 38 26 27 16 17 14 16 54 7 358 353 360 223 187 204 180 205 188 205 208 228 248 210 189 182 186
311 314 315 317 319 323 329 334 337 333 336 337 335 330 257 255 253 208 216 258 357 14 19 22 16 7 66 318 335 55 312 295 219 214 222 226 229 219 219 240 225 189 186 188 189
307 310 312 313 315 316 319 322 324 321 323 323 322 303 253 243 245 220 225 243 290 353 18 29 11 2 87 9 39 312 288 279 261 239 230 210 249 199 225 195 180 184 188 191 197
301 305 309 310 312 314 317 318 316 311 311 309 306 283 262 264 238 225 226 221 239 317 3 19 8 17 348 5 344 325 334 327 238 208 231 191 284 233 221 184 182 187 194 195 197
297 302 306 308 310 312 315 316 314 308 301 300 285 267 250 243 230 229 221 221 230 274 319 335 0 92 78 16 14 21 43 348 303 157 292 153 262 265 225 194 196 196 199 198 198
294 297 302 306 309 311 315 315 311 302 296 279 264 235 246 236 229 218 217 225 239 253 266 263 324 80 81 74 18 15 285 260 313 205 122 186 272 280 209 203 197 205 204 197 195
285 292 299 303 306 310 316 321 309 291 271 258 244 239 233 220 211 215 219 232 246 234 244 195 94 58 27 79 261 263 290 263 240 313 191 259 269 233 210 209 210 209 207 201 202
277 285 293 300 305 311 320 339 315 280 249 233 229 245 228 219 223 224 228 236 229 201 194 73 75 237 230 193 156 181 224 246 248 251 219 237 248 270 227 219 219 216 208 206 207
270 275 283 292 298 307 320 334 328 304 299 269 259 251 246 242 248 227 210 195 181 194 131 34 229 215 135 159 162 194 256 266 285 260 192 264 249 272 247 227 217 213 209 208 208
270 270 275 285 291 295 296 302 311 322 278 275 247 243 225 216 221 201 192 192 177 169 188 179 218 128 156 197 192 213 197 242 240 338 280 315 263 237 301 249 241 226 222 217 209
272 274 275 280 294 280 265 287 311 330 40 271 232 223 191 173 245 188 190 189 188 199 167 232 218 170 202 239 155 265 213 253 289 346 247 43 290 261 255 270 226 222 211 214 206
267 270 271 274 257 275 274 292 308 324 313 261 199 176 179 188 150 193 188 196 183 181 132 244 165 184 211 219 161 225 129 184 206 237 331 219 247 261 52 268 261 212 215 211 210
258 261 261 259 258 258 260 266 276 54 248 255 156 175 156 214 210 152 175 181 109 122 329 248 200 178 216 111 168 117 33 69 57 88 286 227 192 233 191 219 257 209 216 209 213
252 250 252 243 236 236 232 213 33 177 279 224 214 169 198 196 220 181 169 178 179 149 225 247 218 225 179 149 92 102 72 320 320 337 238 134 242 251 253 246 237 223 207 216 208
261 244 246 235 228 217 193 70 214 220 225 65 129 118 189 162 230 188 167 223 235 109 119 215 275 175 183 204 179 168 164 167 250 238 288 223 246 248 232 278 280 267 235 214 203
256 242 241 231 213 207 187 211 198 188 209 170 93 186 228 229 196 158 205 205 205 172 188 177 266 124 173 95 123 165 179 260 19 110 337 235 285 287 271 281 282 220 203 203 204
251 245 241 235 206 202 190 233 211 196 159 150 209 185 203 209 177 191 181 197 234 196 135 212 288 151 121 112 32 144 158 88 14 274 263 261 274 246 246 261 177 216 210 207 207
237 250 237 224 192 189 219 219 217 229 195 183 212 242 212 191 200 207 216 241 209 145 115 137 167 199 123 208 171 116 219 226 157 175 207 305 268 214 204 218 197 215 214 209 206
215 233 208 184 189 210 227 190 201 211 228 245 214 215 203 193 211 225 214 218 183 155 167 200 164 211 215 357 357 248 198 185 207 234 242 145 261 171 195 229 185 214 215 219 214
198 210 210 182 218 220 255 262 223 187 196 210 224 199 191 206 236 199 230 201 181 159 173 177 215 284 316 36 354 220 206 218 357 116 235 216 261 70 13 205 208 218 217 222 218
193 205 196 203 225 229 224 235 228 224 235 220 226 183 170 225 222 255 227 215 206 209 213 165 196 184 236 223 128 185 215 207 213 238 256 241 262 268 266 259 231 229 234 227 222
193 215 188 195 224 223 201 237 232 226 211 210 243 224 215 236 228 236 245 318 215 218 186 178 240 198 249 255 180 229 234 193 208 230 233 265 261 268 270 270 257 255 233 215 208
205 214 199 227 198 214 222 237 237 232 191 216 229 210 224 231 220 238 226 202 225 70 170 181 248 173 257 224 206 263 257 241 233 248 247 255 266 267 268 282 276 255 216 202 202
224 227 236 223 219 202 219 232 236 232 247 236 226 228 235 231 233 243 242 240 217 192 184 164 171 151 251 208 79 270 255 239 248 246 235 247 250 263 272 258 239 231 213 205 202